EW4885 Weather Reports


time (UTC)temp
F
wind
direction
speed
knots
gust
knots
rain 1hr
in
rain 24hr
in
rain mn
in
humidity
%
barometer
mb
20260509041525 56 173 3.5 7.8 0.00 0.00 0.00 72 1014.0
20260509040024 55 139 3.5 7.0 0.00 0.00 0.00 73 1014.2
20260509034524 55 136 3.5 7.0 0.00 0.00 0.00 74 1014.2
20260509033023 55 131 3.5 7.0 0.00 0.00 0.00 74 1014.3
20260509031523 55 154 2.6 6.1 0.00 0.00 0.00 74 1014.3
20260509030021 54 124 3.5 5.2 0.00 0.00 0.00 75 1014.4
20260509024520 54 128 1.7 6.1 0.00 0.00 0.00 76 1014.3
20260509023019 54 144 3.5 6.1 0.00 0.00 0.00 76 1014.3
20260509021519 54 130 2.6 5.2 0.00 0.00 0.00 76 1014.3
20260509020016 54 140 1.7 5.2 0.00 0.00 0.00 75 1014.3
20260509014515 54 140 1.7 4.3 0.00 0.00 0.00 74 1014.1
20260509013032 55 139 2.6 4.3 0.00 0.00 0.00 74 1014.2
20260509011511 55 162 2.6 5.2 0.00 0.00 0.00 73 1014.2
20260509010009 56 157 2.6 7.0 0.00 0.00 0.00 73 1014.1
20260509004506 56 128 2.6 5.2 0.00 0.00 0.00 73 1014.1
20260509003005 56 148 2.6 5.2 0.00 0.00 0.00 72 1014.1
20260509001507 57 150 2.6 6.1 0.00 0.00 0.00 72 1014.1
20260509000003 57 138 4.3 7.8 0.00 0.00 0.00 72 1014.1
20260508234601 57 148 3.5 6.1 0.00 0.00 0.00 72 1014.1
20260508233059 58 121 2.6 5.2 0.00 0.00 0.00 71 1014.3
20260508231557 58 161 1.7 4.3 0.00 0.00 0.00 69 1014.3
20260508230100 59 128 2.6 6.1 0.00 0.00 0.00 68 1014.3
20260508224605 60 161 4.3 7.8 0.00 0.00 0.00 67 1014.2
20260508223052 60 134 5.2 9.6 0.00 0.00 0.00 68 1014.1
20260508221558 59 151 4.3 8.7 0.00 0.00 0.00 69 1014.0
20260508220046 59 128 3.5 8.7 0.00 0.00 0.00 72 1013.9
20260508214546 57 136 3.5 7.8 0.00 0.00 0.00 77 1013.9
20260508213106 56 120 2.6 4.3 0.00 0.00 0.00 81 1013.7
20260508211545 56 119 0.9 2.6 0.00 0.00 0.00 82 1013.7
20260508210044 57 119 1.7 2.6 0.00 0.00 0.00 81 1013.7
20260508204544 58 123 1.7 2.6 0.00 0.00 0.00 80 1013.6
20260508203045 58 123 0.0 2.6 0.00 0.00 0.00 80 1013.6
20260508201543 59 137 0.9 3.5 0.00 0.00 0.00 78 1013.5
20260508200049 60 145 0.9 4.3 0.00 0.00 0.00 77 1013.4
20260508194541 61 95 0.9 4.3 0.00 0.00 0.00 76 1013.2
20260508193120 62 61 0.9 1.7 0.00 0.00 0.00 73 1013.0
20260508191551 64 61 0.0 2.6 0.00 0.00 0.00 70 1012.7
20260508190048 65 61 0.9 3.5 0.00 0.00 0.00 68 1012.5
20260508184610 66 62 1.7 2.6 0.00 0.00 0.00 65 1012.4
20260508183048 68 26 0.0 1.7 0.00 0.00 0.00 62 1012.2
20260508181548 69 26 0.9 3.5 0.00 0.00 0.00 59 1012.1
20260508180056 70 25 0.9 2.6 0.00 0.00 0.00 54 1012.0
20260508174603 70 355 0.9 2.6 0.00 0.00 0.00 51 1011.9
20260508173049 71 335 0.9 3.5 0.00 0.00 0.00 49 1011.8
20260508171609 72 308 1.7 4.3 0.00 0.00 0.00 49 1011.8
20260508170045 72 286 2.6 4.3 0.00 0.00 0.00 49 1011.8
20260508164544 72 49 0.9 2.6 0.00 0.00 0.00 49 1011.7
20260508163044 72 294 1.7 4.3 0.00 0.00 0.00 49 1011.6
20260508161548 73 323 0.0 4.3 0.00 0.00 0.00 47 1011.5
20260508160042 73 203 1.7 6.1 0.00 0.00 0.00 47 1011.6
20260508154542 73 163 1.7 7.0 0.00 0.00 0.00 50 1011.7
20260508153042 73 219 2.6 8.7 0.00 0.00 0.00 47 1011.7
20260508151546 74 205 2.6 7.8 0.00 0.00 0.00 49 1011.7
20260508150039 74 249 3.5 7.0 0.00 0.00 0.00 53 1011.8
20260508144538 73 261 3.5 7.0 0.00 0.00 0.00 51 1012.0
20260508143036 73 9 1.7 4.3 0.00 0.00 0.00 50 1012.0
20260508141536 73 210 0.9 4.3 0.00 0.00 0.00 46 1012.1
20260508140032 73 209 0.9 5.2 0.00 0.00 0.00 52 1012.3
20260508134529 72 290 0.9 6.1 0.00 0.00 0.00 52 1012.4
20260508133040 71 237 1.7 7.0 0.00 0.00 0.00 56 1012.5
20260508131525 71 325 2.6 6.1 0.00 0.00 0.00 55 1012.6
20260508130022 71 316 2.6 5.2 0.00 0.00 0.00 54 1012.7
20260508124528 71 311 2.6 7.0 0.00 0.00 0.00 60 1012.8
20260508123017 70 38 0.9 4.3 0.00 0.00 0.00 62 1012.8
20260508121518 69 342 4.3 7.0 0.00 0.00 0.00 62 1012.9
20260508120013 69 331 1.7 5.2 0.00 0.00 0.00 62 1013.0
20260508114510 69 314 1.7 6.1 0.00 0.00 0.00 66 1013.2
20260508113009 68 171 1.7 5.2 0.00 0.00 0.00 65 1013.2
20260508111507 67 222 1.7 4.3 0.00 0.00 0.00 68 1013.4
20260508110003 66 221 0.0 5.2 0.00 0.00 0.00 67 1013.6
20260508104600 65 296 0.9 4.3 0.00 0.00 0.00 70 1013.7
20260508103058 65 309 0.9 5.2 0.00 0.00 0.00 72 1013.9
20260508101554 64 284 2.6 4.3 0.00 0.00 0.00 76 1014.0
20260508100050 63 257 2.6 4.3 0.00 0.00 0.00 77 1014.1
20260508094545 62 176 0.9 3.5 0.00 0.00 0.00 77 1014.2
20260508093042 61 274 0.0 3.5 0.00 0.00 0.00 79 1014.3
20260508091604 59 337 1.7 4.3 0.00 0.00 0.00 81 1014.3
20260508090033 59 236 1.7 3.5 0.00 0.00 0.00 84 1014.4
20260508084532 57 250 1.7 3.5 0.00 0.00 0.00 85 1014.5
20260508083033 55 276 1.7 3.5 0.00 0.00 0.00 87 1014.6
20260508081523 54 269 0.9 3.5 0.00 0.00 0.00 90 1014.6
20260508080019 52 349 0.0 2.6 0.00 0.00 0.00 92 1014.5
20260508074518 51 229 0.9 2.6 0.00 0.00 0.00 94 1014.6
20260508073012 50 269 0.0 2.6 0.00 0.00 0.00 95 1014.6
20260508071510 49 79 0.0 1.7 0.00 0.00 0.00 96 1014.4
20260508070010 48 117 0.0 1.7 0.00 0.00 0.00 96 1014.3
20260508064510 47 155 0.9 1.7 0.00 0.00 0.00 97 1014.2
20260508063003 47 186 0.0 1.7 0.00 0.00 0.00 96 1014.2
20260508061600 46 279 0.0 0.0 0.00 0.00 0.00 96 1014.1
20260508060058 46 279 0.0 0.9 0.00 0.00 0.00 96 1014.1
20260508054555 45 294 0.0 1.7 0.00 0.00 0.00 96 1014.0
20260508053100 44 294 0.0 2.6 0.00 0.00 0.00 96 1014.0
20260508051616 43 92 0.0 0.0 0.00 0.00 0.00 96 1013.9
20260508050050 42 92 0.9 1.7 0.00 0.00 0.00 95 1013.7
20260508044547 42 92 0.0 0.0 0.00 0.00 0.00 95 1013.7
20260508043045 42 92 0.0 2.6 0.00 0.00 0.00 95 1013.8